Weather in Swords

Ireland     53°27′37″N   6°13′32″W
temp.,
°C
wind,
m/s
gust,
m/s
humid.,
%
clouds,
%
prec.,
mm/h
press.,
hPa
HPBL,
m
18 may, tue
tue1801:00+5wsw47955 0.8 1011132
04:00+3wsw479610 0.0 1011134
07:00+5wsw37956 0.0 1011152
10:00+11wsw34741 0.0 1012757
13:00+12sse337179 1.5 1012891
16:00+13sse236999 1.6 1012932
19:00+12wnw4682100 3.5 1012337
22:00+7w48935 1.4 1014158
19 may, wed
wed1901:00+5w48955 1.4 1016139
04:00+3w48969 0.0 1016147
07:00+4wsw48967 0.0 1017193
10:00+10w56785 0.0 1018714
13:00+14w46556 0.0 10181754
16:00+14w456410 0.4 10191245
19:00+14wnw23636 0.4 10181174
22:00+8w228697 0.0 101913
20 may, thu
thu2001:00+6wsw2286100 0.0 101816
04:00+8se3582100 0.0 101596
07:00+10sse61182100 0.0 1012917
10:00+9se111796100 1.2 10081065
13:00+11sse8139287 2.8 1001762
16:00+10s71590100 2.2 9961368
19:00+11ssw91489100 5.1 994929
22:00+10ssw81585100 0.1 9911096
21 may, fri
fri2101:00+10s61292100 2.5 986726
04:00+10wsw61097100 3.2 983587
07:00+9wnw81396100 5.1 987620
10:00+10wnw71093100 0.4 989785
13:00+11nw81188100 1.2 992872
16:00+10nw71086100 0.2 9941030
19:00+8nw71284100 0.3 997796
22:00+8nw81273100 0.0 1000984
22 may, sat
sat2201:00+6nw81275100 0.0 1002931
04:00+6nw71166100 0.0 10031249
07:00+4wnw613775 0.0 1005669
10:00+9nw7106048 0.0 10061668
13:00+10nw7964100 0.6 10071685
16:00+9wnw6107071 1.4 10091463
19:00+10wnw69635 1.7 10091715
22:00+6w51180100 0.0 1011378